• In Lithuania
  • List of Countries
  • For 7 days
  • Water Temperature
  • Satellite Maps
  • Weather Map
  • Weather Widgets
  • user-avatar
    Login

    Hourly Weather Przyborow

    Today, 26 September, Wednesday

    Time Temperature Precipitation Wind Pressure Humidity
    00:00 +6°C° 0 mm 2 mps 766 mmHg 76%
    01:00 +6°C° 0 mm 2 mps 766 mmHg 78%
    02:00 +6°C° 0 mm 2 mps 766 mmHg 79%
    03:00 +5°C° 0 mm 2 mps 766 mmHg 79%
    04:00 +4°C° 0 mm 3 mps 765 mmHg 80%
    05:00 +5°C° 0 mm 3 mps 765 mmHg 78%
    06:00 +5°C° 0 mm 4 mps 765 mmHg 75%
    07:00 +5°C° 0 mm 4 mps 765 mmHg 73%
    08:00 +7°C° 0 mm 5 mps 765 mmHg 67%
    09:00 +9°C° 0 mm 5 mps 765 mmHg 61%
    10:00 +10°C° 0 mm 6 mps 764 mmHg 55%
    11:00 +11°C° 0 mm 6 mps 764 mmHg 53%
    12:00 +11°C° 0 mm 6 mps 763 mmHg 52%
    13:00 +11°C° 0 mm 6 mps 763 mmHg 50%
    14:00 +11°C° 0 mm 6 mps 762 mmHg 50%
    15:00 +12°C° 0 mm 5 mps 761 mmHg 50%
    16:00 +12°C° 0 mm 5 mps 761 mmHg 50%
    17:00 +11°C° 0 mm 6 mps 760 mmHg 48%
    18:00 +13°C° 0 mm 6 mps 760 mmHg 46%
    19:00 +13°C° 0 mm 6 mps 759 mmHg 44%
    20:00 +13°C° 0 mm 6 mps 759 mmHg 45%
    21:00 +13°C° 0 mm 6 mps 759 mmHg 46%
    22:00 +11°C° 0 mm 7 mps 759 mmHg 46%
    23:00 +11°C° 0 mm 7 mps 759 mmHg 48%

    Tomorrow, 27 September, Thursday

    Time Temperature Precipitation Wind Pressure Humidity
    00:00 +11°C° 0 mm 7 mps 758 mmHg 50%
    01:00 +11°C° 0 mm 7 mps 758 mmHg 51%
    02:00 +11°C° 0 mm 7 mps 758 mmHg 54%
    03:00 +11°C° 0 mm 7 mps 758 mmHg 57%
    04:00 +10°C° 0 mm 7 mps 758 mmHg 59%
    05:00 +10°C° 0 mm 7 mps 758 mmHg 62%
    06:00 +10°C° 0 mm 6 mps 758 mmHg 65%
    07:00 +10°C° 0 mm 6 mps 758 mmHg 68%
    08:00 +13°C° 0 mm 6 mps 758 mmHg 67%
    09:00 +14°C° 0 mm 6 mps 758 mmHg 66%
    10:00 +16°C° 0 mm 6 mps 758 mmHg 65%
    11:00 +17°C° 0 mm 6 mps 758 mmHg 64%
    12:00 +19°C° 0 mm 6 mps 758 mmHg 62%
    13:00 +20°C° 0 mm 6 mps 757 mmHg 61%
    14:00 +20°C° 0 mm 6 mps 757 mmHg 62%
    15:00 +20°C° 0 mm 5 mps 756 mmHg 63%
    16:00 +20°C° 0 mm 5 mps 756 mmHg 64%
    17:00 +19°C° 0 mm 4 mps 756 mmHg 69%
    18:00 +18°C° 0 mm 4 mps 755 mmHg 73%
    19:00 +16°C° 0 mm 3 mps 755 mmHg 77%
    20:00 +15°C° 0 mm 4 mps 755 mmHg 76%
    21:00 +15°C° 0 mm 4 mps 754 mmHg 75%
    22:00 +15°C° 0 mm 4 mps 754 mmHg 74%
    23:00 +14°C° 0 mm 4 mps 753 mmHg 71%

    Day after tomorrow, 28 September, Friday

    Time Temperature Precipitation Wind Pressure Humidity
    00:00 +14°C° 0 mm 4 mps 753 mmHg 68%
    01:00 +14°C° 0 mm 5 mps 752 mmHg 65%
    02:00 +13°C° 0 mm 5 mps 752 mmHg 65%
    03:00 +13°C° 0 mm 5 mps 751 mmHg 64%
    04:00 +12°C° 0 mm 5 mps 751 mmHg 64%
    05:00 +12°C° 0 mm 5 mps 751 mmHg 66%
    06:00 +12°C° 0 mm 5 mps 751 mmHg 68%
    07:00 +12°C° 0 mm 5 mps 751 mmHg 70%
    08:00 +12°C° 0.1 mm 5 mps 751 mmHg 72%
    09:00 +13°C° 0.1 mm 5 mps 752 mmHg 73%
    10:00 +14°C° 0.1 mm 5 mps 752 mmHg 75%
    11:00 +14°C° 0 mm 5 mps 752 mmHg 70%
    12:00 +15°C° 0 mm 5 mps 752 mmHg 65%
    13:00 +15°C° 0 mm 5 mps 752 mmHg 61%
    14:00 +15°C° 0 mm 5 mps 752 mmHg 58%
    15:00 +14°C° 0 mm 5 mps 752 mmHg 56%
    16:00 +14°C° 0 mm 5 mps 752 mmHg 54%
    17:00 +13°C° 0 mm 4 mps 753 mmHg 57%
    18:00 +12°C° 0 mm 3 mps 753 mmHg 61%
    19:00 +10°C° 0 mm 3 mps 753 mmHg 65%
    20:00 +10°C° 0 mm 2 mps 753 mmHg 66%
    21:00 +10°C° 0 mm 2 mps 754 mmHg 68%
    22:00 +9°C° 0 mm 2 mps 754 mmHg 70%
    23:00 +9°C° 0 mm 2 mps 754 mmHg 71%

    29 September, Saturday

    Time Temperature Precipitation Wind Pressure Humidity
    00:00 +9°C° 0 mm 2 mps 754 mmHg 73%
    01:00 +9°C° 0 mm 2 mps 754 mmHg 74%
    02:00 +9°C° 0 mm 2 mps 754 mmHg 77%
    03:00 +8°C° 0 mm 2 mps 754 mmHg 80%
    04:00 +8°C° 0 mm 2 mps 755 mmHg 82%
    05:00 +8°C° 0 mm 2 mps 755 mmHg 82%
    06:00 +8°C° 0 mm 2 mps 755 mmHg 82%
    07:00 +8°C° 0 mm 2 mps 756 mmHg 82%
    08:00 +9°C° 0 mm 3 mps 756 mmHg 73%
    09:00 +11°C° 0 mm 3 mps 757 mmHg 65%
    10:00 +12°C° 0 mm 3 mps 757 mmHg 56%
    11:00 +13°C° 0 mm 3 mps 757 mmHg 51%
    12:00 +13°C° 0 mm 3 mps 757 mmHg 46%
    13:00 +14°C° 0 mm 4 mps 757 mmHg 41%
    14:00 +14°C° 0 mm 3 mps 757 mmHg 41%
    15:00 +13°C° 0 mm 3 mps 757 mmHg 40%
    16:00 +13°C° 0 mm 3 mps 757 mmHg 40%
    17:00 +12°C° 0 mm 3 mps 758 mmHg 43%
    18:00 +10°C° 0 mm 2 mps 758 mmHg 46%
    19:00 +9°C° 0 mm 2 mps 759 mmHg 49%
    20:00 +9°C° 0 mm 2 mps 759 mmHg 50%
    21:00 +8°C° 0 mm 2 mps 759 mmHg 51%
    22:00 +8°C° 0 mm 2 mps 759 mmHg 53%
    23:00 +7°C° 0 mm 2 mps 759 mmHg 54%

    30 September, Sunday

    Time Temperature Precipitation Wind Pressure Humidity
    00:00 +7°C° 0 mm 2 mps 759 mmHg 55%
    01:00 +7°C° 0 mm 1 mps 759 mmHg 57%
    02:00 +7°C° 0 mm 1 mps 759 mmHg 58%
    03:00 +7°C° 0 mm 1 mps 759 mmHg 60%
    04:00 +6°C° 0 mm 1 mps 759 mmHg 61%
    05:00 +7°C° 0 mm 1 mps 759 mmHg 63%
    06:00 +7°C° 0 mm 1 mps 759 mmHg 64%
    07:00 +7°C° 0 mm 1 mps 759 mmHg 65%
    08:00 +9°C° 0 mm 1 mps 758 mmHg 59%
    09:00 +11°C° 0 mm 1 mps 758 mmHg 54%
    10:00 +13°C° 0 mm 1 mps 758 mmHg 48%
    11:00 +13°C° 0 mm 1 mps 758 mmHg 44%
    12:00 +14°C° 0 mm 1 mps 757 mmHg 41%
    13:00 +15°C° 0 mm 1 mps 757 mmHg 37%
    14:00 +15°C° 0 mm 1 mps 756 mmHg 38%
    15:00 +15°C° 0 mm 1 mps 756 mmHg 38%
    16:00 +15°C° 0 mm 1 mps 755 mmHg 39%
    17:00 +14°C° 0 mm 1 mps 755 mmHg 43%
    18:00 +12°C° 0 mm 1 mps 755 mmHg 47%
    19:00 +11°C° 0 mm 1 mps 755 mmHg 50%
    20:00 +10°C° 0 mm 1 mps 755 mmHg 52%
    21:00 +10°C° 0 mm 1 mps 755 mmHg 54%
    22:00 +10°C° 0 mm 1 mps 755 mmHg 57%
    23:00 +9°C° 0 mm 1 mps 754 mmHg 59%

    1 October, Monday

    Time Temperature Precipitation Wind Pressure Humidity
    00:00 +9°C° 0 mm 1 mps 754 mmHg 61%
    01:00 +9°C° 0 mm 1 mps 754 mmHg 63%
    02:00 +8°C° 0 mm 1 mps 754 mmHg 65%
    03:00 +8°C° 0 mm 1 mps 753 mmHg 67%
    04:00 +8°C° 0 mm 1 mps 753 mmHg 68%
    05:00 +8°C° 0 mm 1 mps 753 mmHg 69%
    06:00 +8°C° 0 mm 1 mps 753 mmHg 69%
    07:00 +9°C° 0 mm 1 mps 753 mmHg 69%
    08:00 +11°C° 0 mm 1 mps 753 mmHg 64%
    09:00 +12°C° 0 mm 1 mps 753 mmHg 58%
    10:00 +14°C° 0 mm 1 mps 752 mmHg 53%
    11:00 +15°C° 0 mm 1 mps 752 mmHg 50%
    12:00 +16°C° 0 mm 2 mps 752 mmHg 47%
    13:00 +16°C° 0 mm 2 mps 752 mmHg 44%
    14:00 +16°C° 0 mm 2 mps 751 mmHg 45%
    15:00 +14°C° 0 mm 3 mps 751 mmHg 46%
    16:00 +14°C° 0 mm 3 mps 751 mmHg 47%
    17:00 +14°C° 0 mm 2 mps 751 mmHg 51%
    18:00 +13°C° 0 mm 2 mps 752 mmHg 54%
    19:00 +12°C° 0 mm 2 mps 752 mmHg 58%
    20:00 +12°C° 0 mm 2 mps 752 mmHg 63%
    21:00 +10°C° 0 mm 3 mps 752 mmHg 68%
    22:00 +10°C° 0 mm 3 mps 753 mmHg 73%
    23:00 +10°C° 0.1 mm 3 mps 753 mmHg 74%
    Show more